Weather History for Erie, CO

Change the Weather History Date:

Monday, December 10, 2012

  Actual Average (KBJC) Record (KBJC)
Temperature  
Mean Temperature 22 °F -  
Max Temperature 39 °F 44 °F 66 °F (1990)
Min Temperature 6 °F 25 °F -5 °F (1986)
Degree Days  
Heating Degree Days 42    
Moisture  
Dew Point 5 °F    
Average Humidity 49    
Maximum Humidity 94    
Minimum Humidity 19    
Precipitation  
Precipitation 0.00 in - - ()
Sea Level Pressure  
Sea Level Pressure 29.88 in    
Wind  
Wind Speed 5 mph (WNW)    
Max Wind Speed 21 mph    
Max Gust Speed 26 mph    
Visibility 10 miles    
Events Snow    
Averages and records for this station are not official NWS values.
T = Trace of Precipitation, MM = Missing Value Source: NWS Daily Summary

Daily Weather History Graph

Daily Weather History Graph

Search for Another Location

Airport:

Trip Planner

Search our weather history database for the weather conditions in past years. The results will help you decide how hot, cold, wet, or windy it might be!

Date:

Astronomy

Dec. 10, 2012 Rise Set
Actual Time 7:11 AM MST 4:34 PM MST
Civil Twilight 6:41 AM MST 5:05 PM MST
Nautical Twilight 6:07 AM MST 5:39 PM MST
Astronomical Twilight 5:34 AM MST 6:12 PM MST
Moon 3:58 AM MST (12/10) 2:26 PM MST (12/10)
Length of Visible Light 10h 24m
Length of Day
9h 23m
Waning Crescent, 10% of the Moon is Illuminated
Dec 10
Waning Crescent
Dec 13
New
Dec 19
First Quarter
Dec 28
Full
Jan 4
Last Quarter

Hourly Weather History & Observations

Time (MST) Temp. Windchill Dew Point Humidity Pressure Visibility Wind Dir Wind Speed Gust Speed Precip Events Conditions
12:11 AM 14.7 °F 5.9 °F 3.0 °F 60% 29.96 in 10.0 mi South 5.8 mph - N/A   Clear
12:30 AM 16.0 °F 6.3 °F 1.9 °F 54% 29.95 in 10.0 mi South 6.9 mph - N/A   Clear
12:50 AM 16.0 °F 7.4 °F 1.6 °F 53% 29.94 in 10.0 mi SSE 5.8 mph - N/A   Clear
1:11 AM 14.5 °F - 2.3 °F 58% 29.94 in 10.0 mi Calm Calm - N/A   Clear
1:51 AM 12.9 °F - 2.1 °F 62% 29.94 in 10.0 mi Calm Calm - N/A   Clear
2:11 AM 10.2 °F - 1.8 °F 69% 29.93 in 10.0 mi Calm Calm - N/A   Clear
2:31 AM 9.5 °F - 1.9 °F 71% 29.93 in 10.0 mi Calm Calm - N/A   Scattered Clouds
2:51 AM 10.6 °F - 3.2 °F 72% 29.92 in 10.0 mi Calm Calm - N/A   Mostly Cloudy
3:11 AM 11.3 °F - 3.2 °F 70% 29.90 in 10.0 mi Calm Calm - N/A   Mostly Cloudy
3:31 AM 10.6 °F 4.3 °F 3.2 °F 72% 29.89 in 10.0 mi NNE 3.5 mph - N/A   Scattered Clouds
3:50 AM 9.5 °F - 3.6 °F 77% 29.90 in 10.0 mi Calm Calm - N/A   Mostly Cloudy
4:11 AM 7.5 °F - 3.0 °F 82% 29.90 in 10.0 mi Calm Calm - N/A   Scattered Clouds
4:30 AM 7.3 °F 0.5 °F 2.3 °F 80% 29.89 in 10.0 mi West 3.5 mph - N/A   Clear
4:50 AM 6.8 °F - 2.3 °F 82% 29.90 in 10.0 mi Calm Calm - N/A   Clear
5:10 AM 7.2 °F - 2.5 °F 81% 29.91 in 10.0 mi Calm Calm - N/A   Clear
5:31 AM 6.8 °F - 1.6 °F 79% 29.89 in 10.0 mi Calm Calm - N/A   Clear
6:09 AM 8.4 °F 1.8 °F 3.2 °F 79% 29.88 in 10.0 mi SSW 3.5 mph - N/A   Clear
6:31 AM 8.4 °F - 2.8 °F 78% 29.87 in 10.0 mi Calm Calm - N/A   Clear
6:49 AM 8.1 °F 1.4 °F 2.8 °F 79% 29.86 in 10.0 mi South 3.5 mph - N/A   Clear
7:09 AM 11.7 °F 3.7 °F 4.3 °F 72% 29.85 in 10.0 mi SSW 4.6 mph - N/A   Clear
7:30 AM 14.2 °F - 5.4 °F 68% 29.85 in 10.0 mi Calm Calm - N/A   Clear
7:51 AM 27.7 °F 16.1 °F 6.1 °F 40% 29.85 in 10.0 mi West 15.0 mph 20.7 mph N/A   Clear
8:09 AM 29.3 °F 18.2 °F 3.9 °F 34% 29.85 in 10.0 mi West 15.0 mph 19.6 mph N/A   Clear
8:30 AM 29.3 °F 20.2 °F 3.0 °F 33% 29.85 in 10.0 mi West 10.4 mph - N/A   Clear
8:50 AM 31.8 °F 26.2 °F 2.7 °F 29% 29.85 in 10.0 mi WSW 5.8 mph 9.2 mph N/A   Clear
9:08 AM 32.2 °F - 2.8 °F 29% 29.84 in 10.0 mi Calm Calm - N/A   Clear
9:28 AM 33.3 °F - 1.6 °F 26% 29.85 in 10.0 mi Calm Calm - N/A   Clear
9:49 AM 34.0 °F 28.8 °F 1.4 °F 25% 29.86 in 10.0 mi North 5.8 mph - N/A   Clear
10:08 AM 28.6 °F 19.3 °F 10.8 °F 47% 29.87 in 10.0 mi North 10.4 mph - N/A   Scattered Clouds
10:29 AM 25.5 °F 16.9 °F 10.2 °F 52% 29.87 in 10.0 mi North 8.1 mph - N/A   Mostly Cloudy
10:47 AM 24.8 °F 19.1 °F 10.0 °F 54% 29.87 in 10.0 mi North 4.6 mph - N/A   Scattered Clouds
11:09 AM 27.5 °F 23.6 °F 9.5 °F 47% 29.86 in 10.0 mi NNE 3.5 mph - N/A   Clear
11:29 AM 30.6 °F 23.8 °F 9.0 °F 40% 29.85 in 10.0 mi ENE 6.9 mph - N/A   Clear
11:50 AM 34.9 °F - 5.0 °F 29% 29.84 in 10.0 mi Calm Calm - N/A   Clear
12:09 PM 36.7 °F 32.0 °F 5.0 °F 27% 29.83 in 10.0 mi ESE 5.8 mph - N/A   Clear
12:30 PM 37.6 °F 35.1 °F 3.2 °F 24% 29.83 in 10.0 mi NNE 3.5 mph - N/A   Clear
12:54 PM 39.6 °F - 2.7 °F 21% 29.82 in 10.0 mi Calm Calm - N/A   Clear
1:14 PM 39.6 °F 35.4 °F 2.3 °F 21% 29.82 in 10.0 mi NW 5.8 mph - N/A   Clear
1:34 PM 39.9 °F 35.1 °F 0.3 °F 19% 29.82 in 10.0 mi West 6.9 mph 10.4 mph N/A   Clear
1:54 PM 37.9 °F 31.5 °F 0.9 °F 21% 29.81 in 10.0 mi West 9.2 mph - N/A   Clear
2:14 PM 37.8 °F 30.2 °F 0.7 °F 21% 29.80 in 10.0 mi WNW 11.5 mph - N/A   Clear
2:34 PM 37.4 °F 28.5 °F -0.0 °F 21% 29.80 in 10.0 mi WNW 15.0 mph - N/A   Clear
2:54 PM 37.4 °F 30.8 °F 0.3 °F 21% 29.80 in 10.0 mi WNW 9.2 mph - N/A   Mostly Cloudy
3:14 PM 36.9 °F 27.1 °F 0.5 °F 22% 29.80 in 10.0 mi West 17.3 mph 25.3 mph N/A   Overcast
3:34 PM 36.0 °F 26.7 °F 2.1 °F 24% 29.82 in 10.0 mi WNW 15.0 mph 24.2 mph N/A   Overcast
3:54 PM 36.1 °F 25.5 °F 3.0 °F 25% 29.82 in 10.0 mi West 19.6 mph 25.3 mph N/A   Mostly Cloudy
4:14 PM 35.6 °F 24.5 °F 3.6 °F 26% 29.82 in 10.0 mi West 20.7 mph 26.5 mph N/A   Mostly Cloudy
4:34 PM 34.5 °F 24.5 °F 3.9 °F 28% 29.83 in 10.0 mi West 16.1 mph 23.0 mph N/A   Scattered Clouds
4:54 PM 32.9 °F 24.1 °F 3.9 °F 29% 29.84 in 10.0 mi WNW 11.5 mph - N/A   Clear
5:14 PM 32.0 °F 22.1 °F 3.7 °F 30% 29.84 in 10.0 mi WNW 13.8 mph 21.9 mph N/A   Clear
5:34 PM 32.4 °F 24.0 °F 2.1 °F 28% 29.85 in 10.0 mi WNW 10.4 mph 18.4 mph N/A   Clear
5:54 PM 30.4 °F 22.9 °F 3.0 °F 31% 29.85 in 10.0 mi West 8.1 mph - N/A   Scattered Clouds
6:14 PM 30.7 °F 24.1 °F 3.2 °F 31% 29.85 in 10.0 mi West 6.9 mph - N/A   Clear
6:34 PM 28.9 °F - 3.7 °F 34% 29.86 in 10.0 mi Calm Calm - N/A   Clear
6:54 PM 26.8 °F - 4.1 °F 38% 29.87 in 10.0 mi Calm Calm - N/A   Scattered Clouds
7:14 PM 26.1 °F - 5.0 °F 41% 29.88 in 10.0 mi Calm Calm - N/A   Scattered Clouds
7:54 PM 28.0 °F - 5.5 °F 38% 29.88 in 10.0 mi Calm Calm - N/A   Scattered Clouds
8:14 PM 25.0 °F 19.3 °F 7.3 °F 47% 29.88 in 10.0 mi SE 4.6 mph - N/A   Scattered Clouds
8:34 PM 24.8 °F - 7.0 °F 47% 29.90 in 10.0 mi Calm Calm - N/A   Clear
8:54 PM 23.9 °F - 7.9 °F 51% 29.90 in 10.0 mi Calm Calm - N/A   Clear
9:14 PM 23.0 °F 18.4 °F 9.5 °F 56% 29.91 in 10.0 mi SW 3.5 mph - N/A   Scattered Clouds
9:34 PM 23.9 °F - 9.0 °F 53% 29.92 in 10.0 mi Calm Calm - N/A   Scattered Clouds
9:54 PM 27.9 °F 17.8 °F 9.0 °F 45% 29.94 in 10.0 mi ENE 11.5 mph 18.4 mph N/A   Mostly Cloudy
10:14 PM 29.3 °F 20.8 °F 18.0 °F 63% 29.95 in 10.0 mi NNE 9.2 mph 16.1 mph N/A   Overcast
10:34 PM 28.9 °F 19.2 °F 17.4 °F 62% 29.96 in 10.0 mi ENE 11.5 mph - N/A   Overcast
10:54 PM 27.5 °F 20.2 °F 21.4 °F 78% 29.97 in 1.8 mi East 6.9 mph - N/A Snow Light Snow
11:14 PM 26.4 °F 19.8 °F 24.3 °F 92% 29.98 in 1.2 mi East 5.8 mph - N/A Snow Snow
11:34 PM 26.2 °F 17.8 °F 24.8 °F 94% 29.99 in 1.8 mi East 8.1 mph - N/A Snow Light Snow
11:54 PM 25.3 °F 17.6 °F 23.5 °F 93% 29.99 in 2.5 mi East 6.9 mph - N/A Snow Light Snow